THORAD AGENA D DEB, 5388

Orbit data source: Space-Track

THORAD AGENA D DEB, 5388 is space debris in SSO originally from a launch on Wed, 08 Apr 1970 UTC launched from the Air Force Western Test Range (AFWTR). Debris objects in space refer to the collection of defunct objects orbiting the Earth. Examples of debris include non-operational satellites, rocket bodies, and fragments generated from explosions, collisions, or faulty payload assembly.

Loading next visibility...
Identifier
5388, 1970-025KT
Orbit
SSO
Country
Flag of USUS
Related business
Manufacturer
Unknown
Mission
Spacecraft
Bus & Motor
Unknown
Mass
Unknown
Launch date (UTC)
1970-04-08 (56 years ago)
Launch vehicle
Unknown
Launch site
Air Force Western Test Range (AFWTR)
Object type
Payload
Rocket body
Debris
Shape & HBR
Unknown shape, 0.1 m
Radar Cross Section
RCS unknown

Expand to show TLE details & history
Last TLE update: 2 days ago

TLE from 2 days ago
0 THORAD AGENA D DEB
1 05388U 70025KT  25299.31085594  .00000958  00000-0  17964-2 0  9991
2 05388  99.9132 239.6238 0138283   8.9305 144.1830 13.37965555694562
Epoch: 2025-10-26T07:27Z
TLE epoch observation values (Epoch: 2025-10-26T07:27:37.953Z)
Latitude
25.58684°
Longitude
-82.43713°
Altitude
1,204.378 km
Speed
7.213 km/s
True Right ascension
04h 17m 35s
True Declination
25° 27' 40"
Sunlit
Object was in full shadow at epoch
Visualization orbit readout
Latitude
Unknown
Longitude
Unknown
Altitude
Unknown
Speed
Unknown
Apparent Right ascension
Unknown
Apparent Declination
Unknown
Sunlit
N/A
Visualization observer readout
Local Sidereal Time
12:26:00
Azimuth
Unknown
Elevation
Unknown
Doppler factor
Unknown
Orbital elements
Apogee altitude
1,217.801 km
Perigee altitude
1,010.589 km
Semi-major axis
7,492.332 km
Eccentricity
0.01383
Inclination
99.9132°
RAAN
239.6238°
Arg. of periapsis
8.9305°
True anomaly
145.09745°
Mean anomaly
144.183°
Eccentric anomaly
144.6415°
Mean motion
3.34671 °/min
Orbital period
107.57 mins
BSTAR
0.0017964
Loading maneuver chart data...
Computing Atmospheric mass density...

Documentation

Showing up to 5 results
|